Weather History for Corpus Christi, TX

Change the Weather History Date:

Wednesday, March 14, 2012

  Actual Average Record
Temperature  
Mean Temperature 78 °F 66 °F  
Max Temperature 85 °F 76 °F 95 °F (1971)
Min Temperature 71 °F 56 °F 35 °F (1932)
Degree Days  
Heating Degree Days 0 3  
Month to date heating degree days 23 50  
Since 1 July heating degree days 611 850  
Cooling Degree Days 13 3  
Month to date cooling degree days 83 41  
Year to date cooling degree days 228 117  
Growing Degree Days 28 (Base 50)    
Moisture  
Dew Point 68 °F    
Average Humidity 74    
Maximum Humidity 93    
Minimum Humidity 55    
Precipitation  
Precipitation 0.00 in 0.06 in 3.66 in (2000)
Month to date precipitation 0.36 0.91  
Year to date precipitation 4.90 4.38  
Snow  
Snow 0.00 in - - ()
Month to date snowfall 0.0  
Since 1 July snowfall 0.0  
Snow Depth 0.00 in    
Sea Level Pressure  
Sea Level Pressure 30.07 in    
Wind  
Wind Speed 19 mph (SSE)    
Max Wind Speed 30 mph    
Max Gust Speed 37 mph    
Visibility 9 miles    
Events      
T = Trace of Precipitation, MM = Missing Value Source: NWS Daily Summary

Daily Weather History Graph

Daily Weather History Graph

Search for Another Location

Airport:

Trip Planner

Search our weather history database for the weather conditions in past years. The results will help you decide how hot, cold, wet, or windy it might be!

Date:

Astronomy

Mar. 14, 2012 Rise Set
Actual Time 7:40 AM CDT 7:38 PM CDT
Civil Twilight 7:16 AM CDT 8:01 PM CDT
Nautical Twilight 6:49 AM CDT 8:28 PM CDT
Astronomical Twilight 6:22 AM CDT 8:56 PM CDT
Moon 1:41 AM CDT (3/14) 12:26 PM CDT (3/14)
Length of Visible Light 12h 45m
Length of Day
11h 58m
Waning Gibbous, 54% of the Moon is Illuminated
Mar 14
Waning Gibbous
Mar 14
Last Quarter
Mar 22
New
Mar 30
First Quarter
Apr 6
Full

Hourly Weather History & Observations

Time (CDT) Temp. Heat Index Dew Point Humidity Pressure Visibility Wind Dir Wind Speed Gust Speed Precip Events Conditions
12:51 AM 72.0 °F - 69.1 °F 91% 30.07 in 8.0 mi SSE 16.1 mph - N/A   Overcast
1:51 AM 72.0 °F - 69.1 °F 91% 30.04 in 8.0 mi SE 19.6 mph - N/A   Overcast
2:51 AM 72.0 °F - 69.1 °F 91% 30.03 in 10.0 mi SSE 17.3 mph - N/A   Overcast
3:51 AM 72.0 °F - 69.1 °F 91% 30.03 in 7.0 mi SE 17.3 mph - N/A   Overcast
4:51 AM 72.0 °F - 69.1 °F 91% 30.02 in 7.0 mi SSE 16.1 mph - N/A   Overcast
5:51 AM 72.0 °F - 69.1 °F 91% 30.03 in 7.0 mi SSE 15.0 mph - N/A   Overcast
6:48 AM 71.6 °F - 69.8 °F 94% 30.05 in 7.0 mi SSE 13.8 mph - N/A   Overcast
6:51 AM 71.1 °F - 69.1 °F 93% 30.05 in 6.0 mi SE 13.8 mph - N/A   Overcast
7:51 AM 72.0 °F - 69.1 °F 91% 30.06 in 6.0 mi SSE 12.7 mph - N/A   Overcast
8:51 AM 72.0 °F - 69.1 °F 91% 30.08 in 6.0 mi SSE 12.7 mph - N/A   Mostly Cloudy
9:51 AM 73.9 °F - 70.0 °F 87% 30.10 in 9.0 mi SE 17.3 mph - N/A   Mostly Cloudy
10:19 AM 75.2 °F - 69.8 °F 83% 30.11 in 10.0 mi SSE 17.3 mph - N/A   Mostly Cloudy
10:51 AM 77.0 °F - 69.1 °F 76% 30.11 in 10.0 mi SSE 21.9 mph - N/A   Mostly Cloudy
10:58 AM 77.0 °F - 69.8 °F 78% 30.11 in 10.0 mi SSE 18.4 mph - N/A   Mostly Cloudy
11:51 AM 80.1 °F 82.7 °F 68.0 °F 67% 30.12 in 10.0 mi SSE 23.0 mph 27.6 mph N/A   Mostly Cloudy
12:30 PM 82.4 °F 85.4 °F 68.0 °F 62% 30.10 in 10.0 mi SSE 24.2 mph 33.4 mph N/A   Scattered Clouds
12:51 PM 82.9 °F 85.4 °F 66.9 °F 58% 30.10 in 10.0 mi SSE 24.2 mph 33.4 mph N/A   Scattered Clouds
1:51 PM 82.9 °F 85.4 °F 66.9 °F 58% 30.08 in 10.0 mi SSE 28.8 mph 33.4 mph N/A   Scattered Clouds
2:51 PM 84.0 °F 86.3 °F 66.0 °F 55% 30.05 in 10.0 mi SSE 24.2 mph 33.4 mph N/A   Scattered Clouds
3:51 PM 82.9 °F 85.0 °F 66.0 °F 56% 30.04 in 10.0 mi SSE 27.6 mph 32.2 mph N/A   Scattered Clouds
4:51 PM 82.0 °F 83.8 °F 64.9 °F 56% 30.03 in 10.0 mi SSE 24.2 mph - N/A   Partly Cloudy
5:51 PM 81.0 °F 82.5 °F 64.0 °F 56% 30.03 in 10.0 mi SSE 23.0 mph - N/A   Partly Cloudy
6:51 PM 77.0 °F - 66.0 °F 69% 30.04 in 10.0 mi SE 20.7 mph - N/A   Partly Cloudy
7:21 PM 75.2 °F - 66.2 °F 73% 30.05 in 10.0 mi SE 18.4 mph - N/A   Mostly Cloudy
7:35 PM 75.2 °F - 66.2 °F 73% 30.05 in 10.0 mi SE 16.1 mph - N/A   Mostly Cloudy
7:51 PM 73.9 °F - 68.0 °F 82% 30.06 in 10.0 mi SE 17.3 mph - N/A   Mostly Cloudy
8:07 PM 73.4 °F - 68.0 °F 83% 30.07 in 10.0 mi SE 12.7 mph - N/A   Mostly Cloudy
8:51 PM 73.0 °F - 69.1 °F 87% 30.07 in 10.0 mi SE 16.1 mph - N/A   Overcast
9:51 PM 73.0 °F - 69.1 °F 87% 30.08 in 10.0 mi SE 16.1 mph - N/A   Overcast
10:51 PM 73.0 °F - 69.1 °F 87% 30.09 in 9.0 mi SE 13.8 mph - N/A   Overcast
11:51 PM 73.0 °F - 69.1 °F 87% 30.08 in 8.0 mi SE 20.7 mph - N/A   Overcast